This is the latest recevied weather packets stored in our database for station/object KD2RHT-13. If no packets are shown the sender has not sent any weather packets the latest 10 day(s).
| Time | Temp. | Humidity | Pressure | Rain* | Wind** | Luminosity | Snow |
|---|---|---|---|---|---|---|---|
| 1777836230 | 13.33° C | 49% | 1012.1 hPa | 0 mm | - | 189 W/m² | - |
| 1777835927 | 13.33° C | 50% | 1012.1 hPa | 0 mm | - | 205 W/m² | - |
| 1777835624 | 13.33° C | 51% | 1012.1 hPa | 0 mm | - | 229 W/m² | - |
| 1777835321 | 13.89° C | 48% | 1012.4 hPa | 0 mm | - | 300 W/m² | - |
| 1777835018 | 15° C | 46% | 1012.1 hPa | 0 mm | - | 280 W/m² | - |
| 1777834715 | 13.89° C | 53% | 1012.1 hPa | 0 mm | - | 798 W/m² | - |
| 1777834411 | 13.33° C | 49% | 1012.4 hPa | 0 mm | - | 275 W/m² | - |
| 1777834106 | 13.33° C | 47% | 1012.1 hPa | 0 mm | - | 294 W/m² | - |
| 1777833802 | 13.89° C | 45% | 1012.1 hPa | 0 mm | - | 309 W/m² | - |
| 1777833498 | 13.89° C | 44% | 1012.4 hPa | 0 mm | - | 383 W/m² | - |
| 1777833196 | 13.33° C | 48% | 1012.4 hPa | 0 mm | - | 496 W/m² | - |
| 1777832893 | 13.89° C | 44% | 1012.4 hPa | 0 mm | - | 707 W/m² | - |
| 1777832592 | 13.89° C | 46% | 1012.7 hPa | 0 mm | - | 275 W/m² | - |
| 1777832289 | 14.44° C | 48% | 1012.4 hPa | 0 mm | - | 844 W/m² | - |
| 1777831986 | 15° C | 48% | 1012.7 hPa | 0 mm | - | 396 W/m² | - |
| 1777831682 | 14.44° C | 47% | 1012.7 hPa | 0 mm | - | 845 W/m² | - |
| 1777831380 | 13.89° C | 49% | 1012.7 hPa | 0 mm | - | 396 W/m² | - |
| 1777831076 | 14.44° C | 46% | 1013.1 hPa | 0 mm | - | 668 W/m² | - |
| 1777830774 | 13.33° C | 44% | 1013.1 hPa | 0 mm | - | 667 W/m² | - |
| 1777830469 | 13.89° C | 52% | 1012.7 hPa | 0 mm | - | 686 W/m² | - |
| 1777830168 | 14.44° C | 47% | 1013.1 hPa | 0 mm | - | 697 W/m² | - |
| 1777829868 | 13.89° C | 42% | 1013.1 hPa | 0 mm | - | 700 W/m² | - |
| 1777829564 | 12.78° C | 45% | 1013.5 hPa | 0 mm | - | 692 W/m² | - |
| 1777829261 | 13.33° C | 47% | 1013.1 hPa | 0 mm | - | 696 W/m² | - |
| 1777828958 | 12.22° C | 48% | 1013.5 hPa | 0 mm | - | 710 W/m² | - |
* Rain latest hour (hover to see other rain measurements)
** Current wind speed in m/s (hover to see current wind gust speed)